Home   Weather   Podgorica   Past weeks

Flag for Montenegro Past Weather in Podgorica, Montenegro — Yesterday and Last 2 Weeks

Now
75 °F

Passing clouds.


Feels Like: 77 °F
Forecast: 55 / 81 °F
Wind: 16 mph from North

Location: Podgorica Titograd

Current Time: May 27, 2017 at 12:09:17 pm

Latest Report: May 27, 2017 at 11:30 am


Visibility: N/A

Pressure: 29.98 "Hg

Humidity: 34%

Dew Point: 45 °F

Location of PodgoricaLocation

Past Weather in Podgorica — Graph

°F

Podgorica Temperature Yesterday

Maximum temperature yesterday: 73 °F (at 4:00 pm)
Minimum temperature yesterday: 59 °F (at 4:30 am)
Average temperature yesterday: 66 °F

High & Low Weather Summary for the Past Weeks

 TemperatureHumidityPressure
High82 °F (May 15, 3:00 pm)94% (May 14, 5:30 am)30.18 "Hg (May 14, 5:30 am)
Low55 °F (May 14, 5:30 am)25% (May 21, 7:30 pm)29.83 "Hg (May 12, 8:00 pm)
Average69 °F57%29.99 "Hg
* Reported May 12 11:00 am — May 27 11:00 am, Podgorica. Weather by CustomWeather, © 2017

Note: Actual official high and low records may vary slightly from our data, if they occured in-between our weather recording intervals... More about our weather records

Advertising

Podgorica Weather History for the Previous 24 Hours

Scroll right to see more
 ConditionsComfort  
Time TempWeatherWind HumidityBarometerVisibility
11:00 am
Sat, May 27
75 °FPassing clouds.17 mph36%29.98 "HgN/A
10:30 am75 °FScattered clouds.13 mph34%29.98 "HgN/A
10:00 am73 °FScattered clouds.14 mph38%29.98 "HgN/A
9:30 am72 °FScattered clouds.13 mph38%29.98 "HgN/A
8:30 am70 °FScattered clouds.7 mph43%29.98 "HgN/A
8:00 am70 °FScattered clouds.2 mph43%29.98 "HgN/A
7:30 am68 °FScattered clouds.3 mph46%29.98 "HgN/A
7:00 am68 °FPartly sunny.6 mph46%29.95 "HgN/A
6:30 am68 °FPassing clouds.8 mph46%29.95 "HgN/A
6:00 am68 °FPassing clouds.10 mph46%29.95 "HgN/A
5:30 am68 °FPassing clouds.9 mph46%29.95 "HgN/A
5:00 am68 °FPassing clouds.12 mph46%29.95 "HgN/A
4:30 am66 °FPassing clouds.9 mph49%29.95 "HgN/A
4:00 am64 °FPassing clouds.8 mph52%29.95 "HgN/A
3:30 am63 °FClear.7 mph56%29.95 "Hg10 mi
3:00 am66 °FClear.8 mph49%29.95 "Hg10 mi
2:30 am64 °FClear.9 mph52%29.95 "Hg10 mi
2:00 am64 °FClear.10 mph52%29.95 "Hg10 mi
1:30 am66 °FClear.8 mph49%29.95 "Hg10 mi
1:00 am66 °FClear.8 mph49%29.95 "Hg10 mi
12:30 am66 °FClear.9 mph49%29.95 "Hg10 mi
12:00 am68 °FClear.8 mph46%29.95 "Hg10 mi
11:30 pm
Fri, May 26
68 °FPassing clouds.9 mph46%29.95 "HgN/A
11:00 pm68 °FPassing clouds.10 mph46%29.95 "HgN/A
10:30 pm68 °FClear.9 mph46%29.95 "Hg10 mi
10:00 pm68 °FPassing clouds.14 mph46%29.95 "HgN/A
9:30 pm68 °FPassing clouds.14 mph46%29.95 "HgN/A
8:30 pm68 °FPassing clouds.13 mph46%29.92 "HgN/A
8:00 pm70 °FScattered clouds.13 mph43%29.92 "HgN/A
7:30 pm70 °FScattered clouds.15 mph43%29.92 "HgN/A
7:00 pm70 °FScattered clouds.16 mph43%29.92 "HgN/A
5:00 pm72 °FScattered clouds.16 mph41%29.89 "HgN/A
4:30 pm73 °FScattered clouds.17 mph38%29.92 "HgN/A
4:00 pm73 °FScattered clouds.15 mph38%29.92 "HgN/A
3:30 pm72 °FScattered clouds.17 mph41%29.92 "HgN/A
3:00 pm72 °FScattered clouds.20 mph41%29.92 "HgN/A
2:30 pm72 °FScattered clouds.20 mph38%29.92 "HgN/A
2:00 pm70 °FBroken clouds.22 mph40%29.92 "HgN/A
1:30 pm72 °FBroken clouds.21 mph38%29.92 "HgN/A
1:00 pm70 °FBroken clouds.22 mph40%29.92 "HgN/A
12:30 pm70 °FBroken clouds.21 mph40%29.92 "HgN/A
12:00 pm70 °FBroken clouds.18 mph40%29.92 "HgN/A
Weather by CustomWeather, © 2017

See weather overviewHow to use our weather pages